This demonstration page uses our WeatherBlox Daily Observations layout. Learn more.

Hourly Observations for June 30, 2020

Temp ( °F °C ) Dew Point ( °F °C ) Humidity (%) Winds ( mph kmh ) Pressure ( in mb ) Visibility ( mi km ) Precip ( " mm )
12:54 am 00:54 Clear 80 26.7 73 22.8 79 79 SSE 18 30 29.63 1004 10 16.0934 0 0
1:54 am 01:54 Clear 79 26.1 73 22.8 82 82 SSE 13 20 29.63 1004 10 16.0934 0 0
2:54 am 02:54 Clear 78 25.6 72 22.2 82 82 SSE 12 19 29.64 1004 10 16.0934 0 0
3:54 am 03:54 Clear 78 25.6 72 22.2 82 82 SE 13 20 29.64 1004 10 16.0934 0 0
4:54 am 04:54 Clear 77 25 72 22.2 85 85 SSE 14 22 29.64 1004 9 14.48406 0 0
5:54 am 05:54 Clear 77 25 72 22.2 85 85 SSE 14 22 29.64 1004 9 14.48406 0 0
6:54 am 06:54 Sunny 77 25 72 22.2 85 85 SE 13 20 29.64 1004 8 12.87472 0 0
7:54 am 07:54 Partly Cloudy 78 25.6 72 22.2 82 82 SE 17 28 29.64 1004 9 14.48406 0 0
8:38 am 08:38 Mostly Cloudy 80 26.7 72 22.2 76 76 SSE 17 28 29.62 1003 10 16.0934 0 0
8:54 am 08:54 Mostly Cloudy 80 26.7 72 22.2 76 76 SSE 18 30 29.64 1004 10 16.0934 0 0
9:46 am 09:46 Cloudy 81 27.2 73 22.8 77 77 SSE 14 22 29.63 1003 10 16.0934 0 0
9:54 am 09:54 Cloudy 81 27.2 72 22.2 74 74 SSE 14 22 29.65 1004 10 16.0934 0 0
10:54 am 10:54 Cloudy 83 28.3 72 22.2 70 70 SSE 17 28 29.66 1004 10 16.0934 0 0
11:54 am 11:54 Cloudy 84 28.9 72 22.2 67 67 SSE 16 26 29.66 1005 10 16.0934 0 0
12:25 pm 12:25 Cloudy 85 29.4 72 22.2 65 65 SE 17 28 29.64 1004 10 16.0934 0 0
12:35 pm 12:35 Cloudy 84 28.9 72 22.2 67 67 SSE 20 31 29.64 1004 10 16.0934 0 0
12:51 pm 12:51 Cloudy 84 29 72 22 66 66 SSE 16 26 29.64 1004 10 16.0934 0 0
12:54 pm 12:54 Cloudy 85 29.4 73 22.8 68 68 SSE 14 22 29.66 1005 10 16.0934 0 0
1:24 pm 13:24 Mostly Cloudy 88 31.1 72 22.2 59 59 SE 22 35 29.62 1003 10 16.0934 0 0
1:54 pm 13:54 Mostly Cloudy 88 31.1 72 22.2 59 59 SSE 20 31 29.64 1004 10 16.0934 0 0
2:54 pm 14:54 Mostly Cloudy 87 30.6 72 22.2 61 61 SE 21 33 29.64 1004 10 16.0934 0 0
3:54 pm 15:54 Cloudy 87 30.6 72 22.2 61 61 S 21 33 29.63 1003 10 16.0934 0 0
4:54 pm 16:54 Cloudy 88 31.1 73 22.8 61 61 SSE 20 31 29.62 1003 10 16.0934 0 0
5:54 pm 17:54 Mostly Cloudy 89 31.7 73 22.8 59 59 SSE 14 22 29.62 1003 10 16.0934 0 0
6:54 pm 18:54 Mostly Sunny 88 31.1 73 22.8 61 61 SSE 10 17 29.63 1003 10 16.0934 0 0
7:54 pm 19:54 Sunny 87 30.6 73 22.8 63 63 SE 12 19 29.65 1004 10 16.0934 0 0
8:54 pm 20:54 Partly Cloudy 85 29.4 73 22.8 68 68 ESE 10 17 29.67 1005 10 16.0934 0 0
9:54 pm 21:54 Partly Cloudy 84 28.9 73 22.8 70 70 ESE 12 19 29.66 1004 10 16.0934 0 0
10:54 pm 22:54 Mostly Cloudy 83 28.3 73 22.8 72 72 ESE 14 22 29.68 1005 10 16.0934 0 0
11:54 pm 23:54 Partly Cloudy 83 28.3 73 22.8 72 72 SE 12 19 29.7 1006 10 16.0934 0 0

Powered by AerisWeather